Home > Time Zones > World Clock > Weather > Mali > Bamako > Past weeks

Flag for Mali Weather past 2 weeks in Bamako, Mali

Now
90 °F

Scattered clouds.


Feels Like: 96 °F
Forecast: 73 / 93 °F
Wind: 12 mph from Southwest

Location: Bamako / Senou

Current Time: Jun 30, 2015 at 3:27:39 PM

Latest Report: Jun 30, 2015 at 2:30 PM


Visibility: N/A

Pressure: 29.98 "Hg

Humidity: 55%

Dew point: 72 °F

Location of BamakoLocation

Historic Weather in Bamako — Graph

°F

Bamako temperature yesterday

Maximum temperature yesterday: 84 °F (at 4:00 PM)
Minimum temperature yesterday: 68 °F (at 9:00 AM)
Average temperature yesterday: 76 °F

Past Weeks' High & Low Weather Summary

 TemperatureHumidityPressure
High102 °F (Jun 18, 3:30 PM)100% (Jun 15, 7:30 PM)30.15 "Hg (Jun 15, 7:30 PM)
Low66 °F (Jun 15, 7:30 PM)24% (Jun 18, 3:30 PM)29.80 "Hg (Jun 18, 4:30 PM)
Average83 °F71%29.98 "Hg
* Reported Jun 15 1:00 PM — Jun 30 1:30 PM, Bamako, Weather by CustomWeather, © 2015

Note: Actual official high and low records may vary slightly from our data, if they occured in-between our weather recording intervals... More about our weather records

Advertising

Bamako weather history for previous 24 hours

 ConditionsComfort  
Time TempWeatherWind HumidityBarometerVisibility
1:30 PM
Tue, Jun 30
90 °FScattered clouds.12 mph59%30.01 "HgN/A
1:00 PM88 °FScattered clouds.12 mph66%30.01 "HgN/A
12:30 PM88 °FScattered clouds.10 mph66%30.04 "HgN/A
12:00 PM86 °FScattered clouds.12 mph66%30.04 "HgN/A
11:30 AM86 °FScattered clouds.10 mph70%30.04 "HgN/A
11:00 AM84 °FScattered clouds.12 mph74%30.07 "HgN/A
10:30 AM82 °FScattered clouds.13 mph74%30.07 "HgN/A
10:00 AM82 °FScattered clouds.14 mph74%30.07 "HgN/A
9:30 AM82 °FScattered clouds.14 mph74%30.07 "HgN/A
9:00 AM81 °FSunny.9 mph79%30.01 "Hg10 mi
8:30 AM79 °FSunny.8 mph89%30.04 "Hg10 mi
8:00 AM77 °FSunny.7 mph94%30.04 "Hg10 mi
7:30 AM75 °FSunny.5 mph100%30.01 "Hg10 mi
7:00 AM73 °FSunny.1 mph100%30.01 "Hg10 mi
6:30 AM73 °FClear.2 mph100%30.01 "Hg5 mi
6:00 AM73 °FFog.2 mph100%30.01 "Hg2 mi
5:30 AM73 °FFog.1 mph100%30.01 "Hg1 mi
5:00 AM73 °FFog.2 mph100%30.01 "Hg1 mi
4:30 AM73 °FFog.2 mph100%29.98 "Hg1 mi
4:00 AM73 °FFog.No wind100%29.98 "Hg2 mi
3:00 AM73 °FClear.No wind100%29.98 "Hg5 mi
2:30 AM73 °FClear.No wind100%29.98 "Hg10 mi
2:00 AM73 °FClear.1 mph100%30.01 "Hg10 mi
1:30 AM73 °FClear.2 mph100%30.01 "Hg10 mi
1:00 AM73 °FClear.2 mph100%30.01 "Hg10 mi
12:30 AM73 °FClear.2 mph100%30.01 "Hg10 mi
12:00 AM73 °FClear.1 mph100%30.01 "Hg10 mi
11:30 PM
Mon, Jun 29
73 °FPassing clouds.1 mph100%30.04 "HgN/A
11:00 PM73 °FPassing clouds.1 mph100%30.04 "HgN/A
10:30 PM75 °FPassing clouds.No wind100%30.04 "HgN/A
10:00 PM75 °FPassing clouds.No wind100%30.04 "HgN/A
9:30 PM75 °FPassing clouds.No wind100%30.04 "HgN/A
9:00 PM75 °FPassing clouds.No wind94%30.01 "HgN/A
8:30 PM77 °FPassing clouds.2 mph94%30.01 "HgN/A
8:00 PM77 °FPassing clouds.No wind94%29.98 "HgN/A
7:30 PM81 °FPassing clouds.No wind79%29.98 "HgN/A
7:00 PM81 °FPassing clouds.3 mph74%29.95 "HgN/A
6:30 PM82 °FScattered clouds.6 mph66%29.95 "HgN/A
6:00 PM84 °FScattered clouds.6 mph58%29.95 "HgN/A
5:30 PM84 °FPartly sunny.5 mph58%29.95 "HgN/A
5:00 PM84 °FPartly sunny.2 mph55%29.95 "HgN/A
4:30 PM84 °FPartly sunny.3 mph55%29.95 "HgN/A
4:00 PM84 °FPartly sunny.1 mph58%29.98 "HgN/A
3:30 PM82 °FPartly sunny.1 mph66%29.98 "HgN/A
3:00 PM81 °FPartly sunny.2 mph66%30.01 "HgN/A
Weather by CustomWeather, © 2015

See weather overviewHow to use our weather pages